Regional Weather Roundup
Issued by NWS

Home | Current Version | Previous Version | Text Only | Print | Product List | Glossary On
Versions: 1 2 3 4 5 6 7 8 9 10 11 12 13 14 15 16 17 18 19 20 21 22 23 24 25 26 27 28 29 30 31 32 33 34 35 36 37 38 39 40 41 42 43 44 45 46 47 48 49 50
000
ASUS43 KMKX 240600
RWRWI

WISCONSIN REGIONAL WEATHER ROUNDUP
NATIONAL WEATHER SERVICE MILWAUKEE/SULLIVAN WI
100 AM CDT MON APR 24 2017

NOTE: "FAIR" INDICATES FEW OR NO CLOUDS BELOW 12,000 FEET WITH NO
SIGNIFICANT WEATHER AND/OR OBSTRUCTIONS TO VISIBILITY.

WIZ001-002-006>008-014>016-023>028-240700-
NORTHWEST WISCONSIN

CITY           SKY/WX    TMP DP  RH WIND       PRES   REMARKS
SUPERIOR ARPT  CLOUDY    35  29  79 NE15G24   30.04S WCI  25
ASHLAND        PTCLDY    35  27  72 NE13      30.05F WCI  26
6HR MIN TEMP:  34; 6HR MAX TEMP:  36;

HAYWARD        CLOUDY    37  29  72 E8        29.97F WCI  31
6HR MIN TEMP:  36; 6HR MAX TEMP:  39;

SIREN          PTCLDY    38  32  78 E6        29.94F WCI  33
CUMBERLAND     CLOUDY    41  34  75 E7        29.93F
RICE LAKE      CLOUDY    44  37  75 E8        29.95F
6HR MIN TEMP:  43; 6HR MAX TEMP:  56;

CHETEK         CLOUDY    44  38  78 E9        29.94F
LADYSMITH      CLEAR     42  36  78 E10       29.99F
EAU CLAIRE     NOT AVBL
MENOMONIE      PTCLDY    48  40  74 CALM      29.92S
NEW RICHMOND   CLOUDY    46  37  71 E10       29.90F
OSCEOLA        PTCLDY    44  37  74 E6        29.93F
$$

WIZ003>005-009-010-017-018-240700-
NORTH CENTRAL WISCONSIN

CITY           SKY/WX    TMP DP  RH WIND       PRES   REMARKS
MANITOWISH WTR PTCLDY    33  29  86 SE8       30.02F WCI  25
ARBOR VITAE    CLEAR     37  28  71 SE14G21   30.02F WCI  28
WOODRUFF       CLEAR     37  28  71 SE14G21   30.02F WCI  28
RHINELANDER    CLEAR     36  27  69 E10       30.04F WCI  28
6HR MIN TEMP:  35; 6HR MAX TEMP:  46;

EAGLE RIVER    CLEAR     32  23  68 SE13      30.05F WCI  22
LAND O LAKES   CLEAR     32  24  74 SE7       30.07F WCI  25
PHILLIPS       PTCLDY    37  32  83 SE10G16   29.99F WCI  29
6HR MIN TEMP:  37; 6HR MAX TEMP:  45;

TOMAHAWK       CLEAR     35  30  80 SE5       30.05F WCI  31
MEDFORD        CLEAR     37  32  82 E9        30.01S WCI  30
MERRILL        CLEAR     36  27  68 SE13G20   30.06F WCI  27
$$

WIZ029-030-035-036-043>047-240700-
CENTRAL WISCONSIN

CITY           SKY/WX    TMP DP  RH WIND       PRES   REMARKS
WAUSAU         PTCLDY    35  28  75 E10       30.04F WCI  27
6HR MIN TEMP:  35; 6HR MAX TEMP:  54;

MOSINEE        PTCLDY    36  32  87 E14       30.06S WCI  27
MARSHFIELD     PTCLDY    38  33  82 SE14      30.02S WCI  30
6HR MIN TEMP:  38; 6HR MAX TEMP:  59;

STEVENS POINT  CLEAR     36  32  88 E13       30.06S WCI  27
WAUPACA        CLEAR     39  29  67 E6        30.09S
WAUTOMA        CLEAR     38  30  73 E8        30.07F WCI  32
6HR MIN TEMP:  38; 6HR MAX TEMP:  55;

WISC RAPIDS    PTCLDY    39  33  79 SE15G21   30.05S WCI  31
6HR MIN TEMP:  39; 6HR MAX TEMP:  59;

CAMP DOUGLAS   NOT AVBL
$$

WIZ011>013-019>022-031-037>040-048>050-240700-
NORTHEAST WISCONSIN

CITY           SKY/WX    TMP DP  RH WIND       PRES   REMARKS
ANTIGO         CLEAR     32  25  74 E9        30.07F WCI  24
SHAWANO        CLEAR     38  29  70 E13       30.12S WCI  30
OCONTO         CLEAR     36  27  70 NE7       30.12S WCI  30
STURGEON BAY   CLEAR     36  27  69 E8        30.12F WCI  30
6HR MIN TEMP:  36; 6HR MAX TEMP:  39;

GREEN BAY      CLEAR     39  30  70 NE12      30.10F WCI  32
6HR MIN TEMP:  38; 6HR MAX TEMP:  46;

MANITOWOC      NOT AVBL
APPLETON       CLEAR     36  27  69 E13       30.07F WCI  27
CLINTONVILLE   CLEAR     36  28  75 E9        30.10F WCI  29
OSHKOSH        CLEAR     40  30  67 E10       30.07F WCI  33
6HR MIN TEMP:  40; 6HR MAX TEMP:  48;

$$

WIZ032>034-041-042-053>061-240700-
SOUTHWEST WISCONSIN

CITY           SKY/WX    TMP DP  RH WIND       PRES   REMARKS
LA CROSSE      CLEAR     57  40  52 SE9       29.94S
6HR MIN TEMP:  56; 6HR MAX TEMP:  70;

SPARTA         CLEAR     49  43  80 E7        29.99R
VIROQUA        CLEAR     51  34  52 E8        29.97R
6HR MIN TEMP:  51; 6HR MAX TEMP:  65;

BOSCOBEL       CLEAR     44  40  85 CALM      29.97F
6HR MIN TEMP:  44; 6HR MAX TEMP:  70;

PRAIRIE DU CHI CLEAR     51  37  59 CALM      29.96F
PLATTEVILLE    CLEAR     54  36  51 S8        30.00S
$$

WIZ056-057-062-063-064-067-068-240700-
SOUTH CENTRAL WISCONSIN

CITY           SKY/WX    TMP DP  RH WIND       PRES   REMARKS
REEDSBURG      CLEAR     44  39  82 E6        30.02S
BARABOO/DELLS  CLEAR     42  37  83 E9        30.03S
LONE ROCK      NOT AVBL
MINERAL POINT  CLEAR     54  34  47 SE7       29.99F
MADISON        CLEAR     39  35  86 E7        30.03S WCI  34
6HR MIN TEMP:  39; 6HR MAX TEMP:  69;

MIDDLETON      CLEAR     46  39  77 E5        30.03F
WATERTOWN      CLEAR     37  35  90 E6        30.05F WCI  33
MONROE         CLEAR     52  36  54 E5        30.01S
JANESVILLE     CLEAR     41  37  87 NE7       30.03S
$$

WIZ051-052-058>065-066-070>072-240700-
SOUTHEAST WISCONSIN

CITY           SKY/WX    TMP DP  RH WIND       PRES   REMARKS
MILWAUKEE      PTCLDY    39  34  82 N5        30.05F
6HR MIN TEMP:  39; 6HR MAX TEMP:  41;

WAUKESHA       CLEAR     34  32  93 NE6       30.06F WCI  29
MILWAUKEE/TIMM CLEAR     36  32  87 N5        30.07F WCI  32
RACINE         CLEAR     38  34  85 N7        30.07F WCI  33
6HR MIN TEMP:  38; 6HR MAX TEMP:  41;

KENOSHA        CLEAR     37  34  89 CALM      30.05F
6HR MIN TEMP:  36; 6HR MAX TEMP:  45;

FOND DU LAC    CLEAR     38  28  67 NE9       30.07F WCI  31
6HR MIN TEMP:  38; 6HR MAX TEMP:  47;

SHEBOYGAN      CLEAR     37  31  78 NE10      30.07F WCI  30
6HR MIN TEMP:  37; 6HR MAX TEMP:  40;

WEST BEND      CLEAR     36  32  87 NE3       30.07S
JUNEAU         CLEAR     37  32  84 NE5       30.07S WCI  33
$$

LSZ147-162-240700-
LAKE SUPERIOR

STATION/POSITION TIME  TEMP    WIND        PRES    WAVE
                       AIR SEA DIR/SP/G            HT/PER
                 (UTC) (F)     (DEG/KT/KT) (MB)    (FT/S)
DEVILS ISLAND    0500   35      60/ 23/ 25 1019.8F
SAXON HARBOR     0530   37      60/  8/ 12 1017.9S
$$

LMZ867-665-643>646-240700-
LAKE MICHIGAN

STATION/POSITION TIME  TEMP    WIND        PRES    WAVE
                       AIR SEA DIR/SP/G            HT/PER
                 (UTC) (F)     (DEG/KT/KT) (MB)    (FT/S)
CHAMBERS ISLAND  0540   36      30/ 15/ 17 1020.0S
N MID LAKE BUOY  0450   35 37   50/ 16/ 17 1022.1S   2/ 4
NORTHPORT PIER   0540   36      60/ 11/ 13 1020.3F
KEWAUNEE LAKESHO 0530   38      50/ 15/ 19 1019.1F
SHEBOYGAN LAKESH 0500   39      10/ 17/ 19 1019.0F
PORT WASHINGTON  0540   39     360/  4/  8 1019.0F
MILWAUKEE LAKESH 0530   40      10/  9/ 11   N/A
S MID LAKE BUOY  0450   40 40  360/  6/  6 1018.1F   3/ 6
KENOSHA   LAKESH 0500   41     350/  8/ 11 1018.3
$$

TC  - TEMPERATURE IN CELSIUS
VSB - VISIBILITY IN STATUTE MILES
WCI - WIND CHILL INDEX
HX  - HEAT INDEX




USA.gov is the U.S. government's official web portal to all federal, state and local government web resources and services.